Lapse_Rate
6.3 6.3 6.0 5.4 5.8 6.8 7.8 7.8 7.8 7.7 7.6 7.4 7.6 6.5 7.0 7.1 7.4 6.2 6.1 6.5 6.4 6.1 5.9 5.6 5.5 5.5 5.4 5.4 5.2 5.2 5.0 4.8 4.7 4.8 4.8 4.9 4.8 4.7 4.8 4.8 4.7 4.8 4.8 4.7 4.7 4.8 4.9 5.0 5.2
6.5 5.9 6.1 6.2 6.4 8.1 7.8 7.8 7.7 7.6 7.5 7.3 7.3 7.6 7.4 7.4 7.2 6.8 6.3 6.5 6.6 6.1 5.8 5.6 5.6 5.5 5.4 5.4 5.4 5.3 5.1 5.0 4.9 4.9 5.0 4.8 4.8 4.9 4.9 4.8 4.9 4.9 4.9 4.9 4.8 4.9 5.0 5.4 5.5
6.4 6.1 6.5 6.7 6.8 7.7 7.5 7.8 7.5 7.4 7.3 7.6 7.3 7.1 7.0 6.8 6.8 6.9 6.8 6.2 6.5 5.8 5.4 5.7 5.6 5.5 5.4 5.5 5.4 5.3 5.1 5.1 5.1 5.1 5.0 5.0 4.9 4.9 4.9 5.0 5.0 4.9 5.0 5.0 5.0 5.0 5.2 5.4 5.6
7.0 5.9 5.8 6.4 8.6 8.4 7.3 7.5 7.2 7.3 7.4 7.8 7.7 7.1 6.5 6.2 6.2 6.9 6.5 6.1 6.4 6.0 5.6 5.7 5.6 5.5 5.6 5.7 5.5 5.4 5.3 5.3 5.3 5.2 5.2 5.2 5.1 5.1 4.9 4.9 5.0 5.1 5.0 5.1 5.1 5.3 5.4 5.5 5.7
6.4 6.3 6.1 7.2 8.4 7.6 7.5 7.7 7.6 7.8 7.5 7.8 7.6 6.9 6.6 6.0 6.8 6.8 6.6 5.1 5.9 6.1 5.9 5.8 5.7 5.7 5.8 5.7 5.6 5.5 5.4 5.5 5.4 5.3 5.4 5.3 5.2 5.1 5.0 5.1 5.2 5.2 5.1 5.1 5.1 5.2 5.4 5.3 5.4
5.5 6.3 6.9 8.9 8.9 7.7 7.5 7.9 7.9 7.9 7.4 7.3 7.1 6.9 6.4 6.6 6.8 6.5 6.1 5.1 5.5 6.1 6.0 5.8 5.8 5.8 5.7 5.6 5.7 5.6 5.6 5.6 5.5 5.4 5.4 5.4 5.3 5.2 5.2 5.3 5.3 5.2 5.1 5.1 5.2 5.1 5.1 5.1 5.2
6.6 6.7 7.6 8.6 8.2 7.7 7.4 7.5 7.8 7.5 7.3 7.2 6.8 6.6 7.3 6.9 6.6 5.8 5.7 5.0 5.1 5.7 5.7 5.8 5.8 5.7 5.6 5.6 5.7 5.7 5.7 5.5 5.4 5.5 5.5 5.3 5.3 5.2 5.3 5.3 5.2 5.2 5.2 5.3 5.2 5.1 5.1 5.1 5.3
5.5 5.2 7.6 7.5 7.3 7.4 7.1 7.4 7.4 7.7 7.2 6.8 7.1 6.7 6.8 6.5 6.2 5.9 5.4 5.0 5.0 5.1 6.0 5.8 5.6 5.5 5.6 5.6 5.6 5.7 5.7 5.6 5.4 5.4 5.2 5.1 5.2 5.3 5.2 5.3 5.3 5.1 5.1 5.2 5.3 5.3 5.2 5.2 5.3
6.6 7.0 6.7 7.0 7.1 7.0 7.1 7.1 7.2 6.9 6.8 6.7 6.5 6.5 6.2 6.4 5.9 5.7 5.0 5.1 4.8 5.0 4.8 6.0 5.6 5.5 5.4 5.3 5.4 5.5 5.5 5.4 5.4 5.4 5.2 5.1 5.2 5.1 5.0 5.1 5.2 5.1 5.0 5.1 5.3 5.3 5.3 5.1 5.4
6.3 6.9 7.4 7.6 7.1 7.7 7.4 7.4 7.1 7.0 7.0 6.6 6.4 6.2 6.4 6.3 5.6 5.0 4.9 4.8 4.7 4.7 4.6 4.6 5.1 5.4 5.3 5.1 5.1 5.3 5.2 5.3 5.4 5.3 5.1 5.1 5.3 5.1 5.2 5.0 5.1 5.1 5.1 5.0 5.2 5.1 5.1 5.2 5.6
6.8 7.6 8.0 7.6 7.8 7.6 7.3 7.6 7.1 7.3 6.5 6.7 6.2 6.6 6.5 5.9 5.0 4.9 4.9 4.9 4.7 4.7 4.6 4.6 4.6 5.3 5.0 5.3 5.1 5.1 5.2 5.2 5.3 5.3 5.4 5.3 4.9 5.2 5.4 5.4 5.3 5.1 5.1 5.1 5.3 5.3 5.5 5.3 5.5
7.5 7.8 7.6 7.3 7.5 7.5 7.6 7.6 7.0 7.2 7.3 6.9 6.1 6.4 6.4 5.8 5.0 5.0 5.0 4.9 4.7 4.6 4.5 4.6 4.5 4.7 4.6 4.5 4.8 5.2 5.2 5.2 5.2 5.2 5.5 5.5 5.5 5.4 5.2 4.7 5.3 5.1 5.1 5.0 5.1 5.4 5.9 5.5 5.6
7.3 7.7 7.5 7.4 7.4 7.5 7.3 7.3 7.9 7.2 7.0 6.5 5.8 5.9 5.7 5.1 5.1 5.2 5.2 5.0 4.7 4.5 4.4 4.5 4.5 4.8 4.9 4.5 4.7 4.4 4.6 5.2 5.3 5.3 5.4 5.5 5.5 5.4 5.2 5.1 5.3 5.2 5.2 5.1 5.1 5.5 5.7 5.7 6.3
7.5 7.8 7.4 7.5 7.5 7.4 7.1 7.2 7.0 7.2 6.9 6.4 5.9 5.5 5.3 5.4 5.3 5.4 5.3 5.1 4.9 4.6 4.4 4.4 5.1 5.5 5.4 5.1 5.4 5.1 4.7 5.3 5.7 5.9 5.9 5.9 5.9 5.9 5.5 5.3 5.1 5.2 5.3 5.3 5.1 5.3 5.4 5.0 5.3
7.2 6.6 8.2 7.5 7.9 7.7 7.4 7.4 6.9 6.8 7.3 6.6 6.0 5.8 5.6 5.5 5.4 5.4 5.2 5.2 5.0 4.9 4.9 4.4 5.9 5.9 6.0 5.8 5.7 5.6 5.8 5.6 5.3 5.5 5.7 5.8 5.7 5.7 5.7 5.5 5.4 5.3 5.0 5.5 5.1 5.2 5.4 5.1 4.9
6.2 6.2 7.2 7.8 7.3 7.0 7.7 7.1 6.9 7.1 7.8 6.7 6.5 6.1 5.9 5.6 5.6 5.5 5.2 5.1 5.1 4.9 5.1 5.5 5.9 6.1 6.0 6.0 6.1 5.8 5.6 5.7 5.8 5.8 5.8 5.8 5.7 5.7 5.7 5.5 5.2 5.4 5.5 5.2 5.2 4.9 5.3 5.2 5.1
6.5 6.0 6.3 7.1 7.2 6.4 7.3 8.0 7.3 6.4 6.4 7.0 6.6 6.4 6.1 6.0 5.6 5.4 5.2 5.2 5.2 5.3 6.0 6.0 6.2 6.4 6.1 6.2 6.1 6.0 6.0 5.9 5.6 5.6 5.9 5.8 5.8 5.8 5.7 5.6 5.5 5.8 5.2 5.0 5.1 5.8 5.3 5.2 5.7
7.1 6.7 6.9 7.1 7.6 7.6 7.6 8.1 7.4 7.6 6.4 6.2 6.7 6.7 6.4 6.4 6.2 5.8 5.4 5.3 5.3 5.8 6.4 6.3 6.4 6.4 6.3 6.1 6.1 6.1 6.0 6.0 6.1 5.9 5.5 5.7 5.6 5.6 5.5 5.3 5.1 5.6 4.8 4.9 5.0 5.2 5.3 5.7 5.6
7.3 7.6 7.1 8.0 7.8 7.5 7.9 8.6 7.8 8.4 7.7 6.1 7.0 6.6 6.6 6.5 6.5 6.4 6.0 5.7 5.5 6.0 6.7 6.7 6.7 6.7 6.7 6.5 6.2 6.1 6.2 5.9 5.9 6.0 5.8 6.0 5.6 5.9 5.7 5.4 5.4 5.4 5.1 5.8 5.8 5.1 5.2 5.6 5.7
8.0 8.4 8.1 8.8 8.6 8.4 8.4 7.9 8.0 7.3 8.0 7.5 7.4 6.8 6.7 6.5 6.7 6.4 6.2 6.0 5.6 5.7 6.6 6.5 6.6 6.6 6.5 6.5 6.2 6.1 6.0 6.1 6.0 5.8 5.4 5.2 5.8 5.7 5.4 5.7 5.2 5.6 5.9 5.7 5.6 5.5 5.4 5.5 5.4
8.4 8.2 8.7 9.0 9.1 8.4 8.7 7.8 8.5 8.0 8.2 8.1 8.6 8.0 7.6 6.5 6.5 6.1 6.1 6.4 6.0 5.6 6.4 6.2 6.2 6.4 6.5 6.4 6.2 6.1 6.1 5.7 4.9 5.0 4.8 5.6 5.5 5.6 5.3 5.8 5.9 4.8 5.5 5.6 5.6 5.2 5.0 5.3 5.6
8.2 8.2 8.5 8.7 8.6 7.9 8.2 6.4 8.0 7.2 7.5 8.3 8.3 8.0 8.2 7.8 7.1 6.1 6.1 6.4 6.4 6.0 6.2 6.4 6.1 6.1 6.1 6.1 6.3 6.3 6.0 6.0 5.8 5.1 4.7 5.3 6.1 5.7 5.5 5.4 5.5 5.2 5.3 5.5 5.2 5.2 5.4 5.3 5.4
9.0 8.6 8.3 8.7 9.5 9.1 9.1 8.7 8.6 8.8 9.1 9.0 8.4 8.1 7.8 8.1 7.9 7.0 7.3 6.7 6.5 5.9 5.6 6.0 6.5 5.9 5.6 5.7 5.8 5.8 6.0 5.9 5.6 4.8 5.0 4.9 5.3 5.5 5.3 5.5 5.2 5.5 5.1 4.9 5.1 5.3 5.2 5.2 5.2
8.2 8.3 8.6 8.9 9.2 9.0 9.6 8.9 8.8 8.8 8.1 8.2 7.8 7.2 7.1 7.4 8.0 8.2 7.8 7.0 6.8 6.7 6.9 6.2 6.0 6.7 6.1 5.7 5.9 5.6 5.4 5.5 5.6 6.0 6.1 5.5 5.2 5.0 5.3 5.3 5.4 5.5 5.4 5.6 5.3 5.4 5.5 5.6 5.3
8.2 9.5 8.9 9.6 9.1 9.4 9.5 9.4 9.5 8.5 7.9 7.5 7.3 7.1 6.9 7.5 7.1 7.2 7.4 6.7 6.1 6.2 6.3 4.7 6.6 6.4 6.4 5.9 5.1 5.3 5.6 5.3 5.2 5.6 6.0 6.1 5.8 6.2 5.8 5.4 5.3 5.3 5.5 5.5 5.4 5.4 5.4 5.5 5.5
8.2 9.1 9.6 9.1 9.6 9.7 9.6 9.7 9.4 9.2 7.9 7.8 7.6 7.6 7.3 6.7 6.8 6.9 7.2 6.6 5.9 6.9 7.4 7.0 6.8 7.0 6.6 6.6 5.7 5.3 5.8 5.6 5.2 5.4 5.6 5.5 5.2 5.4 5.5 5.2 5.1 5.1 4.9 5.2 5.1 5.1 5.4 5.0 5.3
8.5 8.5 8.7 9.0 9.6 9.7 9.8 9.5 9.1 9.0 9.1 8.2 8.1 7.9 7.8 7.1 6.5 7.0 6.6 6.3 6.5 6.2 6.7 6.6 7.0 7.0 6.9 6.6 6.3 6.7 6.5 5.6 4.7 5.1 5.4 5.2 5.1 5.4 5.3 5.5 5.6 4.9 5.5 5.3 4.8 5.4 5.3 4.9 4.8
8.3 8.4 8.8 9.6 9.6 9.4 9.6 9.5 9.2 9.1 8.8 8.5 8.3 7.8 7.3 7.0 6.6 6.3 6.6 6.9 7.1 6.5 6.1 6.5 7.4 7.1 7.1 6.7 6.8 7.4 7.1 6.1 5.9 5.3 6.1 5.8 6.2 5.5 5.3 5.7 5.4 5.7 5.9 5.3 5.1 5.1 5.2 5.2 5.1
9.3 9.4 9.5 9.7 9.7 9.7 9.7 9.7 9.1 8.8 8.5 8.4 7.8 7.4 7.0 6.7 6.7 6.4 6.4 6.5 6.9 7.3 7.4 7.2 7.4 7.8 7.2 7.1 7.3 7.5 7.2 6.4 6.6 6.5 6.8 6.8 6.7 6.4 5.9 6.1 5.9 6.1 6.5 5.8 5.6 5.4 5.5 5.0 5.7
9.3 9.0 8.8 9.3 9.5 9.7 9.7 9.7 9.6 9.4 9.1 8.8 8.2 7.1 6.7 6.4 6.5 6.9 6.7 6.8 6.9 7.1 7.3 7.2 7.3 7.6 7.5 7.5 7.4 7.3 7.0 6.7 6.7 6.8 6.7 6.8 6.8 6.3 5.8 5.9 6.1 5.9 5.7 5.9 6.1 5.6 5.6 5.9 6.3
Wind_Speed
9 10 3 10 7 2 12 12 16 11 11 15 12 13 12 16 10 4 16 18 23 19 18 16 14 14 14 14 14 14 14 13 10 10 10 9 9 8 8 8 8 8 10 9 9 9 8 8 9
8 6 5 3 4 4 4 11 15 13 15 10 7 6 19 16 11 18 15 18 23 20 17 16 15 14 14 14 14 14 13 11 10 9 10 9 9 9 8 7 8 9 9 9 9 8 8 8 7
8 12 4 3 3 5 10 11 14 13 11 8 5 13 11 16 21 14 19 19 21 19 18 20 16 15 14 13 13 12 12 11 10 10 10 10 9 8 11 9 8 9 8 8 7 8 8 6 6
7 8 3 2 5 16 17 14 16 12 8 2 16 11 19 16 18 20 19 20 17 19 21 20 16 15 14 12 13 13 12 11 11 11 10 10 10 8 10 8 8 9 7 6 5 5 5 4 3
7 5 4 4 16 16 14 12 11 12 9 9 20 17 16 15 21 20 17 21 23 19 23 20 16 14 14 13 14 13 12 12 12 12 11 11 12 10 9 9 9 8 6 4 2 2 1 1 2
5 4 1 8 13 13 12 8 11 14 12 9 17 15 11 17 18 17 15 14 23 19 21 19 14 14 13 13 13 13 12 12 11 11 11 10 10 10 9 9 8 7 5 2 2 2 3 4 4
3 5 5 7 14 11 10 10 10 12 11 13 16 15 11 15 16 16 13 12 24 22 19 18 16 14 13 13 13 12 11 11 10 12 10 10 8 11 9 8 7 6 4 3 4 6 7 7 8
6 5 7 9 4 17 5 10 11 12 17 12 13 7 15 18 17 15 12 12 13 18 18 16 18 15 14 13 12 12 11 11 10 12 10 9 9 9 9 8 8 6 5 6 8 9 10 11 10
2 4 5 5 4 12 11 12 13 14 11 7 2 19 19 19 18 14 11 12 10 15 16 18 16 17 16 16 12 10 10 10 9 10 10 10 12 12 13 10 13 9 9 11 13 13 15 14 10
5 4 2 13 8 6 9 13 12 10 12 11 17 21 21 19 17 16 13 13 13 12 17 15 16 14 18 18 18 14 13 12 12 13 13 14 15 13 15 14 15 13 14 15 17 18 19 15 8
5 5 10 10 10 7 11 8 23 1 3 15 17 18 19 17 15 15 14 15 12 11 10 16 17 18 17 16 15 15 15 14 13 14 14 15 11 13 12 13 12 12 16 14 17 16 16 13 20
7 19 6 7 6 8 10 5 16 9 9 17 19 18 19 17 15 15 13 14 14 12 12 11 22 12 10 15 12 13 12 14 12 11 10 8 3 1 3 2 10 10 9 5 8 7 6 7 22
9 8 9 5 3 9 5 5 5 11 13 15 19 18 17 16 15 14 13 14 13 13 11 9 11 7 3 9 7 5 4 11 12 14 9 6 6 4 2 4 6 3 7 9 3 3 4 2 1
10 7 8 5 4 4 9 5 3 13 12 15 16 16 15 16 15 14 12 13 13 13 11 12 11 5 2 3 5 1 7 8 9 14 16 11 9 4 2 3 4 7 5 5 9 5 3 5 5
28 10 13 10 7 1 12 4 12 21 10 13 14 14 14 14 13 13 11 11 12 12 14 11 11 9 5 4 3 3 5 12 4 6 18 12 8 5 5 3 5 8 4 3 7 8 7 3 5
19 9 9 13 21 19 7 6 8 22 12 15 13 11 12 13 14 13 12 10 11 12 11 11 12 14 9 6 4 4 7 5 9 9 16 15 13 10 7 5 4 3 4 4 4 5 5 4 6
6 4 13 10 16 10 22 6 18 7 20 14 13 14 12 12 12 12 14 13 14 10 11 9 9 15 12 9 7 7 10 7 9 12 13 16 14 12 7 5 4 4 1 2 2 1 5 5 6
7 6 8 14 11 13 16 5 19 22 15 25 17 14 15 13 15 15 15 14 15 11 11 8 9 8 12 8 6 7 6 6 8 7 9 18 14 11 10 7 3 5 2 4 5 5 4 6 6
4 3 7 10 19 11 14 7 4 22 20 23 18 18 16 15 16 17 15 15 15 14 13 10 11 7 10 8 7 7 7 7 6 6 11 16 13 15 9 5 4 3 9 9 8 3 5 4 6
8 10 11 15 16 17 2 20 23 13 16 21 18 16 17 17 15 17 18 15 16 17 16 13 10 9 10 7 8 7 8 8 7 6 9 10 10 8 11 8 4 7 7 2 5 2 2 2 3
9 11 8 9 5 11 6 17 17 25 25 8 3 19 15 18 19 20 22 18 17 19 19 18 15 13 11 11 8 7 4 4 4 4 7 8 12 11 7 6 7 5 9 9 7 4 2 0 2
3 7 11 9 4 4 15 5 4 15 20 3 3 3 5 14 8 11 19 22 21 19 20 18 17 15 13 11 9 8 7 5 4 2 5 5 2 5 7 2 4 7 5 7 5 3 4 3 3
9 10 10 14 10 5 5 9 6 15 9 11 12 11 8 12 15 19 14 21 21 19 16 14 18 16 14 13 10 9 8 6 1 5 7 7 3 4 3 4 3 5 3 4 5 6 7 5 3
12 15 14 16 11 6 8 7 8 7 9 10 9 10 12 12 12 4 18 15 8 14 18 20 19 17 18 15 14 9 11 6 5 5 5 4 4 3 4 2 3 3 2 5 4 4 5 4 4
13 14 4 5 3 3 7 1 10 15 11 7 4 4 5 6 9 9 19 14 23 16 15 13 19 18 16 15 10 5 10 10 1 5 3 5 5 3 2 5 5 4 4 5 3 1 1 2 3
12 9 10 12 9 3 4 4 8 15 14 10 8 5 7 6 11 13 13 16 12 16 19 12 17 13 16 10 11 6 6 7 6 7 3 4 3 4 7 5 5 2 5 3 1 1 1 3 3
6 10 16 10 14 6 5 12 18 10 12 12 9 11 12 7 6 9 16 8 14 4 10 13 12 10 11 12 11 12 13 10 9 1 3 3 5 4 5 4 4 3 1 0 1 2 2 2 1
8 8 8 6 5 7 10 8 10 10 10 10 8 9 10 9 6 2 5 9 7 3 5 12 12 11 10 10 11 12 15 15 14 14 13 10 7 8 6 5 4 4 3 3 4 4 3 4 1
8 6 11 11 6 6 10 7 12 9 6 6 6 9 10 8 10 6 6 5 7 8 5 5 10 13 10 11 11 13 14 15 16 9 4 4 3 5 7 8 8 6 5 6 4 3 4 2 2
8 8 10 8 11 11 12 10 6 7 3 7 8 11 11 6 8 7 5 6 6 5 6 9 3 9 13 12 12 15 15 15 8 7 8 9 8 6 7 5 5 6 4 3 4 5 5 4 2
Wind_Direction
259 250 274 347 291 49 112 105 92 117 85 65 47 88 52 47 83 93 157 119 125 125 129 127 121 124 122 122 127 132 126 118 120 120 120 112 107 104 107 106 104 105 108 110 107 110 101 96 90
263 245 66 196 259 121 119 111 93 79 89 89 81 18 70 69 114 136 119 137 119 124 137 130 126 126 132 136 135 137 132 130 135 134 119 118 121 120 131 121 125 118 108 97 97 95 99 97 99
257 131 113 174 216 139 107 100 77 94 113 120 93 43 51 101 118 120 122 130 126 128 144 129 133 138 137 133 136 133 139 145 143 128 130 132 130 137 120 132 124 119 112 104 103 101 103 111 115
253 212 227 189 105 85 93 92 110 117 131 28 114 81 101 111 112 124 143 142 122 127 124 131 138 141 137 136 133 131 131 133 132 134 136 138 140 146 130 129 129 124 120 110 113 113 114 129 154
229 262 277 217 84 81 73 92 123 110 126 112 104 107 107 96 113 138 146 124 128 127 126 131 138 144 137 144 138 141 141 139 142 137 144 149 140 144 140 139 128 122 123 128 138 136 132 182 230
337 312 269 121 99 101 91 100 104 86 95 92 95 123 111 112 138 140 143 153 129 129 128 133 138 138 147 144 142 142 143 145 141 145 148 144 147 148 140 137 134 131 136 158 198 228 236 238 246
70 304 263 129 96 85 79 117 102 98 124 117 134 125 129 140 141 143 150 158 132 130 128 130 144 149 150 148 146 148 149 149 153 150 146 152 159 154 150 150 146 146 162 207 236 248 255 257 256
131 259 29 47 342 95 108 70 63 90 80 127 139 130 156 146 152 143 166 147 144 133 138 146 142 158 160 153 155 152 149 148 151 143 156 165 156 165 171 169 167 170 193 225 240 249 256 257 265
9 278 67 136 216 109 141 128 72 92 121 115 49 136 147 146 146 156 172 140 131 148 143 141 155 165 165 147 155 152 158 150 148 152 170 179 190 188 173 180 160 188 214 232 237 239 245 247 256
41 299 144 129 174 239 130 93 134 137 146 130 89 110 131 157 155 159 173 158 155 174 151 151 151 166 176 154 149 170 169 171 182 181 184 216 214 180 189 166 175 199 221 234 243 244 243 242 199
210 241 73 37 158 139 128 98 108 95 324 140 131 136 148 161 169 161 184 165 162 190 159 172 150 163 192 134 170 175 171 176 185 179 193 220 222 166 169 166 189 208 226 239 223 239 242 246 74
184 228 90 154 142 126 101 161 126 153 109 122 135 146 155 165 175 170 187 162 167 184 167 179 154 162 183 152 175 184 174 167 156 181 201 256 277 147 246 184 182 203 176 257 244 307 334 326 102
295 254 140 85 225 106 118 44 77 95 102 116 136 152 160 171 176 173 184 166 174 171 170 192 124 144 116 148 151 195 145 158 161 149 194 254 248 179 115 316 310 269 239 242 256 306 350 314 97
235 114 155 163 133 127 190 137 260 123 129 131 146 163 171 174 176 168 181 171 172 166 175 176 127 119 161 123 116 158 153 137 156 160 168 229 235 169 201 178 276 264 247 356 360 327 315 280 89
22 8 354 178 181 131 109 3 28 293 148 141 159 173 176 180 177 165 178 174 182 163 173 162 142 158 205 151 134 202 256 153 184 180 151 186 234 170 257 216 223 236 197 88 259 272 267 347 112
41 12 341 303 344 325 236 113 261 265 248 159 168 174 179 182 179 168 166 170 166 163 162 162 174 165 194 168 177 208 253 221 179 194 158 180 200 229 201 255 281 360 65 273 262 330 50 27 20
104 162 256 287 323 316 281 189 222 169 330 164 168 170 183 189 193 170 164 180 162 161 146 157 171 163 174 162 175 227 225 233 190 198 176 174 198 203 221 250 158 103 257 281 33 170 26 36 9
177 212 217 190 243 260 272 304 145 137 194 257 172 180 178 190 188 173 179 181 162 154 146 163 161 166 158 162 195 209 224 225 217 186 209 176 195 202 174 262 236 137 253 52 25 41 46 56 14
151 39 299 199 216 218 232 262 352 162 165 284 165 182 190 185 185 179 184 175 167 160 156 169 167 175 158 161 195 204 220 203 234 195 205 181 188 180 174 236 221 152 48 24 359 358 72 56 10
104 121 271 254 159 208 66 29 19 347 194 218 173 185 196 188 187 180 172 184 181 164 160 166 178 169 170 174 186 211 216 197 215 220 178 174 173 189 192 205 168 110 105 39 253 31 39 89 46
8 324 325 334 303 38 20 33 48 322 315 48 347 180 188 205 195 185 170 182 188 170 167 170 180 179 181 182 186 217 238 233 207 225 172 181 187 190 248 167 55 124 156 184 191 182 148 205 135
325 279 305 317 76 172 254 147 256 230 255 162 204 62 224 199 174 265 176 175 190 185 171 168 179 178 182 200 190 199 209 220 222 188 87 86 305 141 143 331 121 160 150 156 158 129 128 154 188
328 329 300 291 266 185 297 129 210 206 201 61 56 36 18 341 192 195 178 190 196 188 151 183 181 175 182 197 216 196 201 218 62 94 100 111 116 83 113 145 129 110 139 154 169 176 188 195 183
306 271 261 288 277 337 80 152 164 128 66 45 40 34 11 355 317 246 190 200 189 181 166 178 179 179 178 187 208 211 193 208 130 137 139 155 149 146 130 135 122 129 215 155 212 222 216 216 182
286 300 314 284 75 291 80 74 108 119 112 107 110 58 55 358 323 303 176 207 195 185 91 267 175 179 184 174 203 174 42 8 190 119 71 56 46 24 86 69 62 39 57 44 321 233 325 231 239
305 325 338 334 356 277 150 92 137 124 128 151 72 38 140 92 5 347 317 198 209 149 177 161 167 163 162 139 149 108 55 103 48 39 35 77 64 26 332 36 25 34 97 119 202 208 263 227 268
337 304 356 309 292 294 17 33 84 96 129 68 34 15 347 85 87 353 336 49 137 189 144 127 132 144 150 160 148 138 140 134 101 228 201 164 206 192 197 189 126 121 27 329 191 251 236 332 286
229 333 314 337 309 328 351 314 79 62 40 22 357 353 57 15 105 69 320 322 339 8 169 134 154 169 177 176 175 157 152 143 152 200 211 185 165 182 187 193 160 172 165 216 219 230 192 150 161
180 265 318 297 274 295 285 327 103 88 41 357 356 39 38 22 26 30 349 349 3 342 37 16 176 174 177 174 167 165 164 153 185 191 137 136 172 197 199 197 175 177 177 198 199 196 186 159 125
275 310 298 301 307 309 314 303 28 88 145 26 5 69 44 49 41 23 351 321 294 255 343 333 296 169 162 174 162 168 173 176 176 168 149 166 180 190 195 181 158 167 184 184 180 200 171 175 126